Location: Le Hiès Ruisseau
(43.3000°N, 0.4500°W)
Time: 12:24:18
(UTC+00:00)

SL-16 R/B - Pass Details

Date: 28 January 2023
Orbit: 842 x 846 km, 71.0° (Epoch: 19 March)

Event Time Altitude Azimuth Distance (km) Brightness Sun altitude
Rises 18:11:41 0° 170° (S) 3,383 5.4 -11.8°
Reaches altitude 10° 18:14:26 10° 159° (SSE) 2,453 4.5 -12.3°
Maximum altitude 18:19:05 27° 103° (ESE) 1,559 3.1 -13.1°
Enters shadow 18:22:03 18° 60° (ENE) 1,977 3.5 -13.6°
